Flag for Austria Weather past 2 weeks in Hartberg, Styria, Austria

Now
64 °F

Light rain. Partly cloudy.


Feels Like: 64 °F
Forecast: 56 / 76 °F
Wind: 6 mph from Northwest

Location: Graz-Thalerhof-Flughafen

Current Time: Jul 23, 2014 at 2:39:17 AM

Latest Report: Jul 23, 2014 at 1:50 AM


Visibility: N/A

Pressure: 29.89 "Hg

Humidity: 94%

Dew point: 63 °F

Location of HartbergLocation

Historic Weather in Hartberg — Graph

°F

Hartberg temperature yesterday

Maximum temperature yesterday: 73 °F (at 1:20 PM)
Minimum temperature yesterday: 61 °F (at 2:50 AM)
Average temperature yesterday: 66 °F

Past Weeks' High & Low Weather Summary

 TemperatureHumidityPressure
High88 °F (Jul 20, 3:50 PM)100% (Jul 8, 5:50 AM)30.15 "Hg (Jul 8, 5:50 AM)
Low55 °F (Jul 11, 1:20 AM)40% (Jul 18, 11:50 AM)29.65 "Hg (Jul 8, 7:20 PM)
Average68 °F76%29.92 "Hg
* Reported Jul 7 6:20 PM — Jul 22 6:50 PM, Hartberg, Weather by CustomWeather, © 2014

Note: Actual official high and low records may vary slightly from our data, if they occured in-between our weather recording intervals... More about our weather records

Advertising

Hartberg weather history for previous 24 hours

 ConditionsComfort  
Time TempWeatherWind HumidityBarometerVisibility
6:50 PM
Jul 22
66 °FLight rain. Mostly cloudy.3 mph94%29.86 "Hg5 mi
6:20 PM66 °FLight rain. Mostly cloudy.3 mph94%29.83 "Hg5 mi
5:50 PM66 °FMild.8 mph94%29.83 "Hg2 mi
5:20 PM68 °FLight rain. Partly sunny.3 mph88%29.83 "HgN/A
4:50 PM68 °FLight rain. Partly sunny.3 mph88%29.83 "HgN/A
4:20 PM68 °FPartly sunny.5 mph83%29.83 "HgN/A
3:50 PM68 °FPartly sunny.8 mph83%29.83 "HgN/A
3:20 PM72 °FThundershowers. Partly sunny.6 mph69%29.83 "HgN/A
2:50 PM72 °FThundershowers. Partly sunny.7 mph78%29.83 "HgN/A
2:20 PM72 °FThundershowers. Partly sunny.5 mph73%29.83 "HgN/A
1:50 PM73 °FBroken clouds.2 mph74%29.80 "HgN/A
1:20 PM73 °FBroken clouds.3 mph69%29.80 "HgN/A
12:50 PM72 °FBroken clouds.6 mph73%29.83 "HgN/A
12:20 PM72 °FBroken clouds.5 mph78%29.83 "HgN/A
11:50 AM70 °FBroken clouds.5 mph83%29.83 "HgN/A
11:20 AM70 °FBroken clouds.5 mph78%29.83 "HgN/A
10:50 AM68 °FPartly sunny.5 mph88%29.83 "HgN/A
10:20 AM68 °FPartly sunny.5 mph88%29.83 "Hg6 mi
9:50 AM66 °FBroken clouds.2 mph94%29.83 "Hg6 mi
9:20 AM66 °FBroken clouds.2 mph94%29.83 "Hg5 mi
8:50 AM66 °FBroken clouds.1 mph88%29.83 "Hg5 mi
8:20 AM64 °FBroken clouds.2 mph94%29.83 "Hg6 mi
7:50 AM64 °FBroken clouds.2 mph94%29.80 "HgN/A
7:20 AM64 °FBroken clouds.No wind94%29.80 "HgN/A
6:50 AM63 °FPartly sunny.1 mph94%29.80 "HgN/A
6:20 AM61 °FPartly cloudy.1 mph94%29.80 "HgN/A
5:50 AM61 °FFog.2 mph94%29.80 "HgN/A
5:20 AM61 °FPartly cloudy.2 mph94%29.77 "HgN/A
4:50 AM61 °FPartly cloudy.2 mph100%29.77 "HgN/A
4:20 AM61 °FPassing clouds.1 mph94%29.77 "HgN/A
3:50 AM61 °FFog.1 mph94%29.77 "HgN/A
3:20 AM61 °FCool.1 mph94%29.77 "HgN/A
2:50 AM61 °FCool.3 mph94%29.77 "HgN/A
2:20 AM63 °FMild.2 mph94%29.77 "HgN/A
Weather by CustomWeather, © 2014

See weather overviewHow to use our weather pages